Tavèrnoles





Hora UTC 20:30
Temperatura 19.0 ºC
Humitat 76.0 %
Pressió 1018.2 hPa
Pluja 0.0 mm
Velocitat vent 0.0 km/h
Direcció vent S
Radiació solar 0.0 W/m²

Dades diàries 2022-08-19



Hora UTC (hivern +1h; estiu +2h)
Temperatura (ºC) Humitat (%) Pressió (hPa) Velocitat vent (km/h) Precipitació (mm) Radiació solar (W/m²)
Hora UTC Aire Humitat Pressió Vel. Dir. Vel. Max Dir. Intent. màx 5 min. Rad. Sol.
00:05 12.0 92.0 1016.2 0.0 S 0.0 0.0 0.0
00:10 12.1 92.0 1016.3 0.0 S 1.6 0.0 0.0
00:15 12.2 91.0 1016.1 0.0 S 0.0 0.0 0.0
00:20 12.2 92.0 1016.1 0.0 S 0.0 0.0 0.0
00:25 12.3 92.0 1016.0 0.0 S 1.6 0.0 0.0
00:30 12.4 92.0 1015.9 0.0 S 1.6 0.0 0.0
00:35 12.5 92.0 1016.0 0.0 S 0.0 0.0 0.0
00:40 12.4 92.0 1016.2 0.0 S 0.0 0.0 0.0
00:45 12.4 92.0 1016.1 0.0 S 0.0 0.0 0.0
00:50 12.6 92.0 1016.2 0.0 S 0.0 0.0 0.0
00:55 12.7 92.0 1016.1 0.0 S 0.0 0.0 0.0
01:00 12.7 92.0 1016.1 0.0 S 0.0 0.0 0.0
01:05 12.7 92.0 1016.0 0.0 S 0.0 0.0 0.0
01:10 12.8 92.0 1015.9 0.0 S 0.0 0.0 0.0
01:15 13.0 92.0 1015.8 0.0 S 1.6 0.0 0.0
01:20 13.0 92.0 1016.0 0.0 S 4.8 0.0 0.0
01:25 13.1 92.0 1015.9 0.0 S 4.8 0.0 0.0
01:30 13.2 92.0 1015.9 0.0 S 1.6 0.0 0.0
01:35 13.4 92.0 1016.0 0.0 S 1.6 0.0 0.0
01:40 13.6 92.0 1016.0 0.0 S 0.0 0.0 0.0
01:45 13.6 92.0 1016.2 0.0 S 0.0 0.0 0.0
01:50 13.7 92.0 1016.1 0.0 S 0.0 0.0 0.0
01:55 13.7 92.0 1016.2 0.0 S 0.0 0.0 0.0
02:00 13.7 92.0 1016.3 0.0 S 0.0 0.0 0.0
02:05 13.7 92.0 1016.5 0.0 S 0.0 0.0 0.0
02:10 13.6 92.0 1016.5 0.0 S 0.0 0.0 0.0
02:15 13.5 92.0 1016.5 0.0 S 0.0 0.0 0.0
02:20 13.4 92.0 1016.4 0.0 S 0.0 0.0 0.0
02:25 13.4 92.0 1016.4 0.0 S 0.0 0.0 0.0
02:30 13.4 92.0 1016.4 0.0 S 0.0 0.0 0.0
02:35 13.4 92.0 1016.4 0.0 S 0.0 0.0 0.0
02:40 13.4 92.0 1016.5 0.0 S 0.0 0.0 0.0
02:45 13.3 92.0 1016.4 0.0 S 0.0 0.0 0.0
02:50 13.3 92.0 1016.4 0.0 S 0.0 0.0 0.0
02:55 13.4 92.0 1016.3 0.0 S 0.0 0.0 0.0
03:00 13.4 92.0 1016.5 0.0 S 0.0 0.0 0.0
03:05 13.3 92.0 1016.5 0.0 S 0.0 0.0 0.0
03:10 13.4 92.0 1016.6 0.0 S 0.0 0.0 0.0
03:15 13.3 92.0 1016.6 0.0 S 0.0 0.0 0.0
03:20 13.3 92.0 1016.6 0.0 S 3.2 0.0 0.0
03:25 13.3 92.0 1016.6 0.0 S 3.2 0.0 0.0
03:30 13.2 92.0 1016.6 0.0 S 0.0 0.0 0.0
03:35 13.2 92.0 1016.5 0.0 S 0.0 0.0 0.0
03:40 13.2 93.0 1016.7 0.0 S 0.0 0.0 0.0
03:45 13.2 93.0 1016.8 0.0 S 0.0 0.0 0.0
03:50 13.3 93.0 1016.8 0.0 S 0.0 0.0 0.0
03:55 13.3 93.0 1016.8 0.0 S 0.0 0.0 0.0
04:00 13.2 93.0 1016.8 0.0 S 1.6 0.0 0.0
04:05 13.2 92.0 1016.9 0.0 S 1.6 0.0 0.0
04:10 13.1 92.0 1016.7 0.0 S 1.6 0.0 0.0
04:15 13.1 92.0 1016.8 0.0 S 0.0 0.0 0.0
04:20 13.1 92.0 1016.8 0.0 S 0.0 0.0 0.0
04:25 13.0 92.0 1016.7 0.0 S 0.0 0.0 0.0
04:30 12.9 92.0 1016.9 0.0 S 3.2 0.0 0.0
04:35 12.8 92.0 1017.0 0.0 S 3.2 0.0 0.0
04:40 12.7 92.0 1017.1 0.0 S 0.0 0.0 0.0
04:45 12.7 92.0 1017.0 0.0 S 0.0 0.0 0.0
04:50 12.7 93.0 1017.0 0.0 S 0.0 0.0 0.0
04:55 12.8 93.0 1017.1 0.0 S 0.0 0.0 0.0
05:00 12.8 93.0 1017.1 0.0 S 0.0 0.0 0.0
05:05 12.9 93.0 1017.2 0.0 S 0.0 0.0 0.0
05:10 12.9 93.0 1017.3 0.0 S 0.0 0.0 0.0
05:15 12.9 93.0 1017.2 0.0 S 0.0 0.0 0.0
05:20 12.8 93.0 1017.3 0.0 S 0.0 0.0 5.0
05:25 12.8 93.0 1017.4 0.0 S 1.6 0.0 5.0
05:30 12.7 92.0 1017.4 0.0 S 1.6 0.0 11.0
05:35 12.7 92.0 1017.5 0.0 S 0.0 0.0 11.0
05:40 12.6 92.0 1017.5 0.0 S 0.0 0.0 12.0
05:45 12.6 93.0 1017.5 0.0 S 0.0 0.0 14.0
05:50 12.7 93.0 1017.6 0.0 S 0.0 0.0 19.0
05:55 12.7 93.0 1017.7 0.0 S 0.0 0.0 18.0
06:00 12.7 93.0 1017.8 0.0 S 0.0 0.0 21.0
06:05 12.7 93.0 1017.7 0.0 S 0.0 0.0 21.0
06:10 12.7 93.0 1017.8 0.0 S 0.0 0.0 23.0
06:15 12.7 93.0 1017.9 0.0 S 0.0 0.0 26.0
06:20 12.7 93.0 1017.9 0.0 S 0.0 0.0 25.0
06:25 12.7 93.0 1017.8 0.0 S 0.0 0.0 42.0
06:30 12.7 93.0 1017.8 1.6 S 4.8 0.0 39.0
06:35 12.8 93.0 1017.9 0.0 S 6.4 0.0 65.0
06:40 12.8 93.0 1017.9 0.0 S 6.4 0.0 63.0
06:45 12.8 93.0 1018.0 0.0 S 6.4 0.0 79.0
06:50 12.9 93.0 1017.9 1.6 S 6.4 0.0 83.0
06:55 13.0 93.0 1017.9 0.0 S 6.4 0.0 90.0
07:00 13.0 93.0 1018.0 0.0 S 4.8 0.0 98.0
07:05 12.9 93.0 1018.0 0.0 S 1.6 0.0 58.0
07:10 13.0 93.0 1018.0 0.0 S 0.0 0.0 84.0
07:15 13.2 93.0 1018.2 0.0 S 0.0 0.0 70.0
07:20 13.2 93.0 1018.4 0.0 S 1.6 0.0 118.0
07:25 13.3 93.0 1018.4 0.0 S 4.8 0.0 120.0
07:30 13.4 93.0 1018.3 0.0 S 4.8 0.0 102.0
07:35 13.3 93.0 1018.4 0.0 S 0.0 0.0 109.0
07:40 13.4 93.0 1018.4 0.0 S 0.0 0.0 67.0
07:45 13.4 93.0 1018.2 0.0 SW 0.0 0.0 54.0
07:50 13.6 93.0 1018.2 0.0 NNE 0.0 0.0 33.0
07:55 13.7 93.0 1018.2 0.0 ENE 1.6 0.0 39.0
08:00 13.9 93.0 1018.2 0.0 NW 1.6 0.0 148.0
08:05 14.2 93.0 1018.2 0.0 WNW 3.2 0.0 155.0
08:10 14.3 92.0 1018.5 0.0 NW 3.2 0.0 243.0
08:15 14.6 92.0 1018.4 0.0 W 1.6 0.0 53.0
08:20 14.6 91.0 1018.4 4.8 NNW 4.8 0.0 40.0
08:25 14.7 91.0 1018.4 0.0 NNW 6.4 0.0 229.0
08:30 14.9 91.0 1018.4 0.0 WNW 6.4 0.0 251.0
08:35 15.2 91.0 1018.4 0.0 NW 4.8 0.0 250.0
08:40 15.4 90.0 1018.4 1.6 N 4.8 0.0 62.0
08:45 15.5 88.0 1018.4 0.0 NNW 4.8 0.0 376.0
08:50 15.7 88.0 1018.3 0.0 NE 4.8 0.0 86.0
08:55 16.0 87.0 1018.2 0.0 ENE 6.4 0.0 348.0
09:00 16.4 86.0 1018.2 0.0 NNW 6.4 0.0 520.0
09:05 16.8 84.0 1018.3 3.2 NW 3.2 0.0 561.0
09:10 17.2 83.0 1018.3 4.8 ENE 4.8 0.0 568.0
09:15 17.6 81.0 1018.4 0.0 NE 4.8 0.0 563.0
09:20 18.1 79.0 1018.3 0.0 NE 4.8 0.0 596.0
09:25 18.6 77.0 1018.2 0.0 ENE 6.4 0.0 610.0
09:30 19.1 74.0 1018.2 0.0 NNW 6.4 0.0 622.0
09:35 19.6 74.0 1018.2 1.6 NNW 8.0 0.0 629.0
09:40 20.1 71.0 1018.1 0.0 ENE 8.0 0.0 640.0
09:45 20.5 69.0 1018.1 0.0 NE 6.4 0.0 649.0
09:50 20.7 67.0 1018.2 1.6 W 6.4 0.0 657.0
09:55 21.1 67.0 1018.1 4.8 NW 4.8 0.0 666.0
10:00 21.4 65.0 1018.1 0.0 NNW 4.8 0.0 675.0
10:05 21.8 65.0 1018.2 0.0 S 6.4 0.0 682.0
10:10 21.8 64.0 1018.1 0.0 NNW 6.4 0.0 689.0
10:15 22.1 62.0 1018.2 4.8 NW 8.0 0.0 694.0
10:20 22.2 62.0 1018.1 0.0 N 8.0 0.0 705.0
10:25 22.5 61.0 1018.1 0.0 N 8.0 0.0 714.0
10:30 22.8 58.0 1017.9 0.0 N 8.0 0.0 719.0
10:35 23.0 59.0 1018.0 3.2 NW 6.4 0.0 724.0
10:40 23.4 56.0 1017.9 0.0 WNW 8.0 0.0 729.0
10:45 23.8 60.0 1017.9 1.6 W 8.0 0.0 735.0
10:50 24.4 56.0 1017.9 0.0 SW 8.0 0.0 744.0
10:55 24.6 55.0 1017.8 1.6 N 8.0 0.0 747.0
11:00 24.7 58.0 1017.8 4.8 N 8.0 0.0 752.0
11:05 24.7 55.0 1017.8 1.6 NE 6.4 0.0 752.0
11:10 24.8 54.0 1017.8 0.0 NNE 6.4 0.0 758.0
11:15 25.3 51.0 1017.7 0.0 NW 8.0 0.0 765.0
11:20 25.7 41.0 1017.8 1.6 WNW 8.0 0.0 766.0
11:25 25.8 43.0 1017.7 1.6 WNW 8.0 0.0 770.0
11:30 26.0 46.0 1017.6 0.0 N 8.0 0.0 772.0
11:35 26.2 46.0 1017.6 8.0 SSW 9.7 0.0 773.0
11:40 26.6 46.0 1017.6 1.6 SW 11.3 0.0 779.0
11:45 26.7 44.0 1017.5 4.8 S 11.3 0.0 780.0
11:50 26.6 41.0 1017.4 0.0 S 11.3 0.0 782.0
11:55 26.6 40.0 1017.4 3.2 NNW 9.7 0.0 780.0
12:00 26.5 44.0 1017.2 3.2 NNW 8.0 0.0 782.0
12:05 26.8 42.0 1017.0 4.8 NW 8.0 0.0 782.0
12:10 26.9 42.0 1017.1 0.0 SW 8.0 0.0 782.0
12:15 27.3 38.0 1017.1 0.0 NW 12.9 0.0 780.0
12:20 27.7 39.0 1017.0 4.8 SSW 12.9 0.0 784.0
12:25 28.0 34.0 1017.1 3.2 NNW 9.7 0.0 782.0
12:30 28.3 34.0 1017.0 12.9 SSW 9.7 0.0 777.0
12:35 28.2 34.0 1017.0 8.0 SSW 14.5 0.0 777.0
12:40 28.1 35.0 1016.9 1.6 S 14.5 0.0 773.0
12:45 28.0 34.0 1016.9 1.6 S 11.3 0.0 772.0
12:50 28.2 34.0 1016.9 0.0 ENE 9.7 0.0 768.0
12:55 28.8 34.0 1016.9 0.0 SSW 4.8 0.0 765.0
13:00 29.4 32.0 1016.9 1.6 SW 12.9 0.0 765.0
13:05 29.7 33.0 1016.7 1.6 WSW 12.9 0.0 761.0
13:10 29.8 29.0 1016.8 3.2 WSW 12.9 0.0 758.0
13:15 29.8 30.0 1016.6 8.0 SSW 16.1 0.0 752.0
13:20 29.6 28.0 1016.5 6.4 NW 16.1 0.0 745.0
13:25 29.7 29.0 1016.4 3.2 W 16.1 0.0 742.0
13:30 29.7 28.0 1016.4 3.2 WNW 6.4 0.0 738.0
13:35 29.7 27.0 1016.3 8.0 SW 11.3 0.0 728.0
13:40 30.0 27.0 1016.3 0.0 W 12.9 0.0 721.0
13:45 29.9 29.0 1016.3 3.2 SW 12.9 0.0 714.0
13:50 29.9 30.0 1016.3 3.2 SSW 12.9 0.0 705.0
13:55 29.8 31.0 1016.3 3.2 SSW 12.9 0.0 694.0
14:00 29.8 32.0 1016.3 1.6 WSW 14.5 0.0 689.0
14:05 29.9 30.0 1016.2 8.0 S 14.5 0.0 686.0
14:10 29.9 29.0 1016.1 0.0 NNE 9.7 0.0 673.0
14:15 30.2 32.0 1016.2 6.4 NNW 11.3 0.0 659.0
14:20 30.3 33.0 1016.2 3.2 NNW 11.3 0.0 652.0
14:25 30.2 33.0 1016.1 1.6 NNW 9.7 0.0 643.0
14:30 30.4 32.0 1016.1 3.2 SSE 8.0 0.0 638.0
14:35 30.5 32.0 1016.1 8.0 SSW 16.1 0.0 622.0
14:40 30.3 31.0 1016.1 4.8 SW 16.1 0.0 610.0
14:45 30.3 31.0 1016.0 0.0 WNW 11.3 0.0 438.0
14:50 30.4 34.0 1015.9 6.4 NW 11.3 0.0 591.0
14:55 30.4 34.0 1015.9 0.0 SSW 9.7 0.0 584.0
15:00 30.6 35.0 1015.8 1.6 SSW 9.7 0.0 577.0
15:05 30.2 36.0 1015.8 1.6 SSW 9.7 0.0 538.0
15:10 30.1 37.0 1015.8 0.0 SSW 9.7 0.0 596.0
15:15 30.1 37.0 1015.8 0.0 SSW 8.0 0.0 561.0
15:20 30.3 37.0 1015.7 3.2 SW 8.0 0.0 571.0
15:25 29.9 42.0 1015.8 9.7 S 12.9 0.0 100.0
15:30 29.3 43.0 1015.8 0.0 SSW 12.9 0.0 125.0
15:35 28.9 43.0 1015.8 0.0 SSW 11.3 0.0 128.0
15:40 28.9 43.0 1015.8 0.0 S 6.4 0.0 545.0
15:45 29.2 46.0 1015.7 0.0 NW 6.4 0.0 526.0
15:50 29.4 47.0 1015.7 1.6 SSW 8.0 0.0 512.0
15:55 29.7 45.0 1015.8 6.4 SSE 16.1 0.0 506.0
16:00 29.6 46.0 1015.7 4.8 S 19.3 0.0 399.0
16:05 29.6 46.0 1015.7 8.0 SSW 19.3 0.0 169.0
16:10 29.7 47.0 1015.7 9.7 SSW 16.1 0.0 146.0
16:15 29.7 45.0 1015.6 6.4 SSW 16.1 0.0 121.0
16:20 29.4 45.0 1015.6 4.8 S 14.5 0.0 281.0
16:25 29.2 47.0 1015.6 3.2 SW 11.3 0.0 350.0
16:30 29.2 46.0 1015.6 9.7 S 16.1 0.0 292.0
16:35 29.0 47.0 1015.7 9.7 SSW 16.1 0.0 230.0
16:40 28.7 47.0 1015.7 9.7 SSW 14.5 0.0 151.0
16:45 28.4 49.0 1015.8 0.0 SSW 14.5 0.0 98.0
16:50 28.2 50.0 1015.8 4.8 SW 16.1 0.0 69.0
16:55 27.9 50.0 1015.7 8.0 SSW 16.1 0.0 62.0
17:00 27.8 51.0 1015.7 4.8 SSW 11.3 0.0 74.0
17:05 27.7 51.0 1015.7 8.0 SW 16.1 0.0 70.0
17:10 27.5 52.0 1015.7 6.4 S 16.1 0.0 72.0
17:15 27.4 52.0 1015.7 3.2 SSE 16.1 0.0 60.0
17:20 27.3 53.0 1015.6 4.8 SSE 11.3 0.0 58.0
17:25 27.1 54.0 1015.6 6.4 SSW 12.9 0.0 49.0
17:30 26.8 55.0 1015.7 3.2 SSE 16.1 0.0 47.0
17:35 26.6 56.0 1015.8 4.8 S 16.1 0.0 56.0
17:40 26.3 57.0 1015.8 1.6 SSW 17.7 0.0 60.0
17:45 26.1 57.0 1015.9 8.0 SSW 17.7 0.0 39.0
17:50 25.9 58.0 1016.0 8.0 SSW 11.3 0.0 39.0
17:55 25.8 58.0 1016.0 1.6 SSW 9.7 0.0 28.0
18:00 25.7 58.0 1016.1 1.6 E 12.9 0.0 23.0
18:05 25.4 59.0 1016.1 4.8 S 12.9 0.0 21.0
18:10 25.3 59.0 1016.1 0.0 S 6.4 0.0 14.0
18:15 25.1 60.0 1016.2 1.6 S 6.4 0.0 12.0
18:20 24.8 61.0 1016.3 0.0 S 4.8 0.0 11.0
18:25 24.6 61.0 1016.3 0.0 S 4.8 0.0 9.0
18:30 24.4 62.0 1016.4 0.0 SSE 3.2 0.0 9.0
18:35 24.2 62.0 1016.5 1.6 S 6.4 0.0 5.0
18:40 23.9 63.0 1016.6 0.0 SSE 8.0 0.0 5.0
18:45 23.7 64.0 1016.7 0.0 S 8.0 0.0 0.0
18:50 23.4 64.0 1016.8 0.0 S 4.8 0.0 0.0
18:55 23.2 65.0 1016.7 0.0 S 3.2 0.0 0.0
19:00 22.9 66.0 1016.9 6.4 SSW 6.4 0.0 0.0
19:05 22.8 67.0 1017.0 0.0 SSW 9.7 0.0 0.0
19:10 22.6 67.0 1017.0 0.0 S 9.7 0.0 0.0
19:15 22.4 67.0 1017.1 0.0 SSW 6.4 0.0 0.0
19:20 22.2 68.0 1017.1 0.0 S 4.8 0.0 0.0
19:25 22.1 68.0 1017.2 0.0 S 4.8 0.0 0.0
19:30 21.7 69.0 1017.3 0.0 S 1.6 0.0 0.0
19:35 21.3 70.0 1017.3 0.0 S 1.6 0.0 0.0
19:40 21.1 70.0 1017.4 0.0 S 0.0 0.0 0.0
19:45 20.8 71.0 1017.6 0.0 S 0.0 0.0 0.0
19:50 20.6 72.0 1017.6 0.0 S 0.0 0.0 0.0
19:55 20.4 72.0 1017.6 0.0 S 0.0 0.0 0.0
20:00 20.2 73.0 1017.6 0.0 S 0.0 0.0 0.0
20:05 19.9 74.0 1017.8 0.0 S 1.6 0.0 0.0
20:10 19.8 74.0 1017.8 0.0 S 1.6 0.0 0.0
20:15 19.6 75.0 1017.9 0.0 S 1.6 0.0 0.0
20:20 19.4 75.0 1018.0 0.0 S 0.0 0.0 0.0
20:25 19.2 76.0 1018.1 0.0 S 1.6 0.0 0.0
20:30 19.0 76.0 1018.2 0.0 S 3.2 0.0 0.0
Màxima 30.6 93.0 1018.5 12.9 SSW 19.3 0.0 784.0
Mínima 12.0 27.0 1015.6
Total 0.0